Other Surface Observations
Issued by NWS

Home | Current Version | Previous Version | Text Only | Print | Product List | Glossary On
Versions: 1 2 3 4 5 6 7 8 9 10 11 12 13 14 15 16 17 18 19 20 21 22 23 24 25 26 27 28 29 30 31 32 33 34 35 36 37 38 39 40 41 42 43 44 45 46 47 48 49 50
713
SXUS52 KTAE 011118
OSOTAE
OSOTAE
North Florida/South Alabama/Southwest Georgia Weather Roundup
National Weather Service Tallahassee Florida
700 AM EDT SUN MAY 01 2016

Note: "fair" indicates few or no clouds below 12,000 feet with no
significant weather and/or obstructions to visibility.

!FLZ017-115-028-034-025-011200
...North Florida...

CITY           SKY/WX    TMP DP  RH WIND       PRES   REMARKS
TALLAHASSEE    CLOUDY    72  70  93 CALM      29.98R
APALACHICOLA   PTCLDY    74  73  97 SE8       29.96S
PERRY          CLOUDY    71  68  88 E5        30.01R
CROSS CITY       N/A     72  66  81 VRB5      30.01R
JACKSONVILLE   CLOUDY    72  69  90 SE9       30.01S
$$

!FLZ112-006-005-002-011-011200
...Florida Panhandle...

CITY           SKY/WX    TMP DP  RH WIND       PRES   REMARKS
MARIANNA       PTCLDY    71  71 100 CALM      29.98R
BONIFAY        NOT AVBL
PANAMA CITY NW MOCLDY    73  72  96 E6        29.96R FOG
TYNDALL AFB    CLOUDY    72  71  97 SE7       29.97R
TYND DRONE APT FAIR      72  72 100 SE7       29.97R
DE FUNIAK SPR    N/A     70  70 100 CALM      29.98R FOG
EGLIN AFB      MOCLDY    74  73  96 SE7       29.95R
DESTIN         PTCLDY    76  75  97 SE8       29.95R
HURLBURT       PTCLDY    73  72  95 E5        29.94R
CRESTVIEW      FOG       71  71 100 E3        29.97S VSB 1/4
PENSACOLA      PTCLDY    74  72  93 SE6       29.94R
$$

!ALZ063-066-011200
...South Alabama...

CITY           SKY/WX    TMP DP  RH WIND       PRES   REMARKS
DOTHAN         CLOUDY    69  67  93 CALM      30.03R
OZARK CAIRNS   PTCLDY    70  70 100 E2        29.98R
FT RUCKER HELI MOCLDY    70  68  93 CALM      29.97R FOG
RUCKER HELI 3  FAIR      70  70 100 SE2       30.00R
RUCKER HELI 2  NOT AVBL
FLORALA APT    MOCLDY    70  68  94 CALM      29.99R FOG
ANDALUSIA      FOG       72  68  88 CALM      29.98R VSB 1/4
TROY           CLOUDY    70  68  93 CALM      29.99R
EUFALA         FAIR      64  62  93 CALM      29.99R FOG
MOBILE         CLOUDY    73  73 100 SE5       29.93R FOG
$$

!GAZ120>161-011200
...Southwest and South Central Georgia...

CITY           SKY/WX    TMP DP  RH WIND       PRES   REMARKS
THOMASVILLE    FAIR      68  68 100 CALM      30.02R
BAINBRIDGE     PTCLDY    72  70  94 CALM      29.99S FOG
MOODY AFB      PTCLDY    68  66  94 SE5       30.00R
VALDOSTA       MOCLDY    69  68  96 S3        30.02R FOG
MOULTRIE       CLOUDY    70  66  88 CALM      30.01R
BLAKELY        CLEAR     68  68 100 CALM      30.00R FOG
ALBANY         CLOUDY    70  67  90 CALM      30.01R
TIFTON         FAIR      67  67 100 CALM      30.02R
FITZGERALD     FAIR      70  68  95 CALM      30.04R FOG
CORDELE        FAIR      71  69  94 CALM      30.02R
AMERICUS       FAIR      64  64 100 CALM      30.03R FOG
HOMERVILLE     MOCLDY    70  70 100 CALM      30.03R
$$

!GMZ750-755-770-775-011200
...Coastal and Buoy Obs...

STATION/POSITION TIME  TEMP    WIND        PRES    VSBY  WAVE
                       AIR SEA DIR/SP/G                  HT/PER
                 (UTC) (F)     (DEG/KT/KT) (MB)    (MI)  (FT/S)
KEATON BEACH     1100   72      60/  6/  8 1015.4R
CEDAR KEY        1100   76     160/ 16/ 18 1016.3R
C TOWER          1100   74     140/ 11/ 13 1015.4R
APALACHICOLA BUO 1050   76 75  130/ 12/ 16 1014.2R         3/ 7
PANAMA CITY BUOY 1050   78 78  150/ 16/ 17 1013.7R         4/ 7
MOBILE BUOY      1100   76 74  150/ 10/ 12 1012.5R
ORANGE BCH AL BU 1050   75 74  130/  8/ 10 1012.4R         4/ 6
$$




USA.gov is the U.S. government's official web portal to all federal, state and local government web resources and services.